sat.trackr.live / text

‹ back to catalog

GEN1A-1

NORAD 69004 · 2026-100AA

PAYLOAD ACTIVE UNKNOWN

§ Identity

Operator
Country
US
Launch date
2026-05-03
Launch site
AFWTR
Launch vehicle
Mass (kg)
RCS (m²)

External: N2YO · Heavens-Above · Gunter

§ Orbital elements

Epoch: 2026-05-25T04:33:19.082880Z

Period
94.74 min
Inclination
97.4072°
Eccentricity
0.0006150
Mean motion
15.20009807 rev/d
Perigee alt
501.6 km
Apogee alt
510.0 km
Semi-major
6,883.9 km
B*
1.3229e-4
RAAN
43.4207°
Arg perigee
93.0931°
Mean anomaly
267.1008°
Rev number
332

§ Raw data

GEN1A-11 69004U 26100AA  26145.18980420  .00002783  00000+0  13229-3 0  99972 69004  97.4072  43.4207 0006150  93.0931 267.1008 15.20009807  3321

JSON: /api/v1/satellites/69004 · /tle

For live sub-satellite position, see the globe view (requires WebGL).

§ Visibility from observer

Set your observer location to see the next 7 days of passes ≥ 10°. The values pass through the URL so the page stays shareable.

No JS? Fill the form by hand. The geolocation button needs JavaScript.